Location: Montbazon
(47.2835°N, 0.6999°E)
Time: 16:33:02
(UTC+00:00)

CENTAUR R/B - Pass Details

Date: 08 November 2025
Orbit: 633 x 1547 km, 63.4° (Epoch: 09 December)

Event Time Altitude Azimuth Distance (km) Brightness Sun altitude
Exits shadow 03:51:59 20° 340° (NNW) 2,464 4.4 -30.5°
Maximum altitude 03:55:02 25° 12° (NNE) 2,317 4.6 -30.0°
Drops below altitude 10° 04:01:50 10° 65° (ENE) 3,512 6.2 -28.9°
Sets 04:05:43 0° 78° (ENE) 4,595 7.2 -28.2°
